Location: T. Spence Memorial Observatory
(32.7356°N, 82.2098°W)
Time: 02:37:18
(UTC-05:00)

Cosmos 2219 - Visible Passes

Search period start: 26 November 2014 00:00
Search period end: 06 December 2014 00:00
Orbit: 834 x 860 km, 71.1° (Epoch: 25 November)

Date Brightness Start Highest point End Pass type
(mag) Time Alt. Az. Time Alt. Az. Time Alt. Az.
26 Nov 5.4 05:12:44 10° N 05:17:01 21° ENE 05:21:17 10° ESE visible
26 Nov 4.6 19:59:11 10° SSW 20:01:47 29° SSW 20:01:47 29° SSW visible
27 Nov 5.4 04:59:25 10° NNE 05:03:39 21° ENE 05:07:52 10° ESE visible
27 Nov 3.7 19:45:50 10° SSW 19:49:52 50° SSW 19:49:52 50° SSW visible
28 Nov 5.4 04:46:07 10° NNE 04:50:17 20° ENE 04:54:27 10° ESE visible
28 Nov 3.5 06:29:11 10° NNW 06:34:38 47° WSW 06:40:05 10° S visible
28 Nov 3.0 19:32:29 10° SSW 19:37:56 86° S 19:37:56 86° S visible
29 Nov 5.5 04:33:02 11° NNE 04:36:55 20° ENE 04:41:01 10° ESE visible
29 Nov 3.5 06:15:49 10° NNW 06:21:18 49° WSW 06:26:46 10° S visible
29 Nov 3.0 19:19:08 10° SSW 19:24:43 87° ESE 19:25:57 57° NNE visible
30 Nov 5.5 04:20:53 15° NNE 04:23:33 20° ENE 04:27:36 10° ESE visible
30 Nov 3.4 06:02:53 12° NNW 06:07:57 50° WSW 06:13:27 10° S visible
30 Nov 3.0 19:05:47 10° SSW 19:11:22 85° ESE 19:13:54 34° NNE visible
30 Nov 6.0 20:54:26 10° WNW 20:55:54 11° WNW 20:55:54 11° WNW visible
01 Dec 5.4 04:08:49 18° NE 04:10:11 19° ENE 04:14:10 10° ESE visible
01 Dec 3.4 05:50:49 20° NW 05:54:36 51° WSW 06:00:07 10° S visible
01 Dec 3.1 18:52:26 10° SSW 18:58:01 83° ESE 19:01:47 22° NNE visible
01 Dec 5.9 20:40:53 10° WNW 20:42:50 12° NW 20:43:47 11° NW visible
02 Dec 5.5 03:56:49 19° ENE 03:56:49 19° ENE 04:00:45 10° ESE visible
02 Dec 3.3 05:38:49 31° NW 05:41:16 52° WSW 05:46:47 10° S visible
02 Dec 3.1 18:39:05 10° SSW 18:44:40 81° ESE 18:49:35 14° NNE visible
02 Dec 5.9 20:27:22 10° WNW 20:29:28 12° NW 20:31:34 10° NNW visible
03 Dec 5.7 03:44:52 17° ENE 03:44:52 17° ENE 03:47:19 10° E visible
03 Dec 3.3 05:26:53 47° WNW 05:27:55 54° WSW 05:33:28 10° S visible
03 Dec 3.1 18:25:44 10° SSW 18:31:19 79° ESE 18:36:57 10° NNE visible
03 Dec 5.8 20:13:51 10° W 20:16:06 12° NW 20:18:22 10° NNW visible
04 Dec 6.0 03:32:57 13° E 03:32:57 13° E 03:33:53 10° E visible
04 Dec 3.3 05:14:58 54° WSW 05:14:58 54° WSW 05:20:08 10° S visible
04 Dec 3.1 18:12:24 10° SSW 18:17:58 77° ESE 18:23:36 10° NNE visible
04 Dec 5.8 20:00:20 10° W 20:02:44 13° NW 20:05:08 10° NNW visible
05 Dec 3.9 05:03:04 39° SSW 05:03:04 39° SSW 05:06:48 10° S visible
05 Dec 3.2 17:59:03 10° SSW 18:04:37 75° ESE 18:10:15 10° NNE visible
05 Dec 5.8 19:46:50 10° W 19:49:21 13° NW 19:51:53 10° NNW visible
